Regional Weather Roundup
Issued by NWS State College, PA

Home | Current Version | Previous Version | Text Only | Print | Product List | Glossary On
Versions: 1 2 3 4 5 6 7 8 9 10 11 12 13 14 15 16 17 18 19 20 21 22 23 24 25 26 27 28 29 30 31 32 33 34 35 36 37 38 39 40 41 42 43 44 45 46 47 48 49 50
000
ASUS41 KCTP 270110
RWRCTP

REGIONAL WEATHER ROUNDUP
NATIONAL WEATHER SERVICE STATE COLLEGE PA
900 PM EDT THU MAR 26 2015

Note: "fair" indicates few or no clouds below 12,000 feet with no
significant weather and/or obstructions to visibility.

* = STATION THAT DOES NOT REPORT PRECIPITATION /E.G. RAIN...SNOW...ETC/
    THUNDER OR FOG.

PAZ002>004-007>009-013>016-020>023-029>032-270200-
WESTERN PENNSYLVANIA

CITY           SKY/WX    TMP DP  RH WIND       PRES   REMARKS
ERIE           CLOUDY    35  32  88 SW6       29.87S
MEADVILLE      CLOUDY    34  31  88 W8        29.85R
FRANKLIN*      CLOUDY    34  28  80 NW5       29.86R
NEW CASTLE     MOCLDY    37  34  87 W3        29.89R
BEAVER COUNTY  CLOUDY    37  36  93 NW8       29.86R
BUTLER*        CLOUDY    37  34  87 NW6       29.87R
PITTSBURGH INT LGT RAIN  40  37  89 NW14      29.85R
PITTSBURGH     CLOUDY    41  36  82 NW6       29.84R
INDIANA*       CLOUDY    39  39 100 NW6       29.85R
LATROBE        MOCLDY    41  41 100 CALM      29.84S
WASHINGTON CO* CLOUDY    41  39  93 W5        29.88R
$$

PAZ004>006-010>012-017>019-024>028-033>037-041-042-045-046-049>053-270200-
CENTRAL PENNSYLVANIA

CITY           SKY/WX    TMP DP  RH WIND       PRES   REMARKS
BRADFORD       CLOUDY    33  31  92 NW12      29.78R
DUBOIS         CLOUDY    38  35  89 NW9       29.79R
CLEARFIELD     MOCLDY    38  35  89 W5        29.80R
JOHNSTOWN      CLOUDY    37  36  96 NW8       29.76S
ALTOONA        MOCLDY    42  36  79 N8        29.77R
STATE COLLEGE  MOCLDY    41  36  81 CALM      29.76R
WILLIAMSPORT   CLOUDY    42  36  79 W3        29.77R
SELINSGROVE    CLOUDY    44  40  85 N8        29.76R
FT INDIANTOWN  CLOUDY    46  41  81 N14       29.72R
CAPITAL CITY   CLOUDY    50  43  77 NW14G22   29.72R
HARRISBURG     CLOUDY    50  44  80 NW16      29.71R
YORK           CLOUDY    52  46  80 NW10      29.71R
$$

PAZ038>040-043-044-047-048-054-055-060>062-067>071-270200-
EASTERN PENNSYLVANIA

CITY           SKY/WX    TMP DP  RH WIND       PRES   REMARKS
SCRANTON       CLOUDY    41  38  89 N7        29.72F
MOUNT POCONO   LGT RAIN  38  35  89 NW16G26   29.64F
ALLENTOWN      HVY RAIN  49  46  90 NW7       29.67S FOG
QUAKERTOWN*    CLOUDY    50  50 100 N8        29.65S
READING        LGT RAIN  51  48  89 NW8       29.66S
LANCASTER      CLOUDY    52  48  86 N13       29.69R
COATESVILLE    RAIN      54  54 100 NW9       29.68R
POTTSTOWN      LGT RAIN  53  53 100 W6        29.68R
BLUE BELL      CLOUDY    55  54  94 NW7       29.65R
DOYLESTOWN     RAIN      52  52 100 NW5G18    29.65R FOG
WILLOW GROVE   NOT AVBL
NORTH PHILA    CLOUDY    63  54  72 NW21G32   29.65R
PHILADELPHIA   MOCLDY    61  57  87 W9        29.63R
$$


USA.gov is the U.S. government's official web portal to all federal, state and local government web resources and services.